FW8442 Weather Reports


time (UTC)temp
F
wind
direction
speed
knots
gust
knots
rain 1hr
in
rain 24hr
in
rain mn
in
humidity
%
barometer
mb
20260504214542 72 229 2.6 5.2 0.00 0.00 0.00 35 1009.2
20260504213049 72 205 1.7 6.1 0.00 0.00 0.00 35 1009.3
20260504211622 72 0 1.7 5.2 0.00 0.00 0.00 34 1009.4
20260504210051 72 238 0.9 6.1 0.00 0.00 0.00 35 1009.3
20260504204543 72 240 1.7 11.3 0.00 0.00 0.00 34 1009.4
20260504203044 72 290 0.9 7.8 0.00 0.00 0.00 35 1009.2
20260504201542 72 176 0.9 5.2 0.00 0.00 0.00 35 1009.2
20260504200052 72 184 1.7 4.3 0.00 0.00 0.00 33 1009.3
20260504194551 72 199 2.6 7.8 0.00 0.00 0.00 34 1009.4
20260504193056 73 290 1.7 5.2 0.00 0.00 0.00 33 1009.6
20260504191606 73 271 0.9 6.1 0.00 0.00 0.00 37 1009.7
20260504190054 73 220 0.9 4.3 0.00 0.00 0.00 35 1010.0
20260504184552 73 226 1.7 6.1 0.00 0.00 0.00 37 1010.4
20260504183049 73 80 0.9 3.5 0.00 0.00 0.00 35 1010.6
20260504181548 72 249 1.7 6.1 0.00 0.00 0.00 37 1010.9
20260504180046 72 252 1.7 5.2 0.00 0.00 0.00 38 1011.1
20260504174548 72 262 2.6 8.7 0.00 0.00 0.00 35 1011.2
20260504173053 71 159 1.7 6.1 0.00 0.00 0.00 38 1011.2
20260504171546 71 252 0.9 5.2 0.00 0.00 0.00 37 1011.5
20260504081546 45 0 0.0 0.9 0.00 0.00 0.00 68 1013.9
20260504044549 46 0 0.0 0.9 0.00 0.00 0.00 62 1013.5
20260504043047 46 0 0.0 0.0 0.00 0.00 0.00 63 1013.4
20260504041551 46 0 0.0 0.0 0.00 0.00 0.00 63 1013.2
20260504040111 46 0 0.0 0.0 0.00 0.00 0.00 61 1013.2
20260504034544 47 0 0.0 1.7 0.00 0.00 0.00 60 1013.1
20260504033050 46 238 0.0 0.9 0.00 0.00 0.00 62 1013.0
20260504031600 45 0 0.0 0.0 0.00 0.00 0.00 63 1013.0
20260504030049 45 0 0.0 0.0 0.00 0.00 0.00 62 1013.0
20260504024546 45 0 0.0 0.0 0.00 0.00 0.00 62 1012.8
20260504023049 45 0 0.0 0.0 0.00 0.00 0.00 62 1012.9
20260504021604 46 0 0.0 0.0 0.00 0.00 0.00 60 1012.8
20260504020106 46 0 0.0 0.0 0.00 0.00 0.00 60 1012.9
20260504014557 47 0 0.0 0.0 0.00 0.00 0.00 57 1012.7
20260504013051 48 0 0.0 0.0 0.00 0.00 0.00 55 1012.6
20260504011542 49 0 0.0 0.9 0.00 0.00 0.00 52 1012.5
20260504010054 50 0 0.0 0.0 0.00 0.00 0.00 51 1012.3
20260504004547 50 0 0.0 0.0 0.00 0.00 0.00 50 1012.1
20260504003042 52 0 0.0 0.0 0.00 0.00 0.00 47 1011.8
20260504001550 54 0 0.0 0.9 0.00 0.00 0.00 43 1011.6
20260504000051 55 246 0.0 0.9 0.00 0.00 0.00 40 1011.5
20260503234608 56 0 0.0 1.7 0.00 0.00 0.00 37 1011.2
20260503233048 57 0 0.0 0.9 0.00 0.00 0.00 37 1011.2
20260503231552 58 287 0.0 1.7 0.00 0.00 0.00 35 1011.1
20260503230051 58 0 0.9 6.1 0.00 0.00 0.00 33 1011.1
20260503224550 59 0 0.0 4.3 0.00 0.00 0.00 34 1011.0
20260503223054 59 295 0.0 6.1 0.00 0.00 0.00 33 1010.8
20260503221554 59 308 0.9 5.2 0.00 0.00 0.00 33 1010.6
20260503220051 59 312 0.9 5.2 0.00 0.00 0.00 33 1010.7